Погода Приморско-Ахтарск

Хотите узнать прогноз погоды Приморско-Ахтарск? Тогда Вам сюда: Погода Приморско-Ахтарск

Поиск расширенной информации на нашем сайте:

Полезная информация:

Новости сайта



02.01.2020
Опубликован Долгосрочный прогноз погоды по городам России и ближнего зарубежья на январь 2020 года.
Карты: Прогноз на январь и февраль 2020 года, Сравнение прогнозируемой аномалии приземной температуры воздуха на январь 2020 года по разным моделям.




Погода Приморско-Ахтарск - сегодня

Время (UTC), дата Ветер
(°,м/с) 
Видим.   Явления Облачность Т
(°С)
Тd
(°С)
f(%) Тe
(°С)
Pmin
(гПа)
dP
(гПа)
Po
(мм)
O2
(г/м3)
Тmin Tmax R s Состояние
почвы
15 18.10.20 290 (З) 10 км    3/0 средняя, верхняя 
[Ac trans|Ci fib]
+21.1 +10.7 51 +23  1012.1  0.5  759  282    +23.9       
18 18.10.20 тихо ()   4000 м  дымка  10/10 600 м 
[Sc]
+17.3 +15.8 91 +27  1016  0.7  762  285           
21 18.10.20 330 (СЗ) 4000 м  дымка  10/10 600 м 
[Sc]
+17.4 +16.1 92 +29  1015.9  0.1  762  285           
00 19.10.20 030 (СВ) 10 км    10/0 верхняя 
[Ci fib]
+16.8 +13.3 80 +23  1016.7  0.8  762  287           
03 19.10.20 070 (В) 10 км    3/0 средняя 
[Ac trans]
+14.6 +10.4 76 +17  1017.2  0.5  763  290  +14.6        сухая 
06 19.10.20 070 (В) 10 км    8/3 600 м верхняя 
[Cu hum|Ci fib]
+15.4 +9.8 69 +17  1017.3  -0.1  763  289  +14.4         
09 19.10.20 100 (В) 10 км    10/8 600 м средняя 
[Sc|Ac trans]
+18.9 +11 60 +22  1017  -0.3  762  285           
12 19.10.20 350 (С) 4000 м  слаб. ливневой дождь  10/10 600 м кучево-дожд. 
[Cb calv]
+15.2 +12.8 86 +21  1017.1  -0.1  762  289           
15 19.10.20 020 (С) 4000 м  слаб. ливневой дождь  10/10 600 м кучево-дожд. 
[Cb calv]
+13 +11.2 89 +15  1018.6  1.5  764  292    +19.6     
18 19.10.20 030 (СВ) 10 км  в посл. час ливневой дождь  8/8 600 м 
[Sc diur, vesp]
+12.8 +10.5 86 +14  1021.3  2.7  766  293           
21 19.10.20 340 (С) 10 км  {ливн. осадки}  10/10 600 м 
[Sc]
+13.5 +8.1 70 +14  1023.8  2.7  767  293           
00 20.10.20 340 (С) 10 км  {ливн. осадки}  3/3 600 м 
[Sc]
+13.3 +4.7 56 +13  1024.4  0.6  768  294           
03 20.10.20 060 (СВ) 10 км    1/1 600 м 
[Sc]
+10 +5.9 76 +11  1025  0.6  768  298  +10      влажная 
06 20.10.20 060 (СВ) 10 км    8/8 600 м 
[Sc]
+12.8 +7 68 +13  1026.3  1.3  769  295  +8.8         
09 20.10.20 340 (С) 10 км    6/6 600 м 
[Sc]
+14.6 +6.4 58 +15  1026.4  0.1  769  293           
12 20.10.20 320 (СЗ) 10 км    8/8 600 м 
[Sc]
+14.5 +5.6 55 +15  1025.9  -0.5  769  293           
15 20.10.20 300 (СЗ) 10 км    6/6 600 м 
[Sc]
+12.7 +4.8 59 +13  1026.2  0.3  769  295    +14.7       
18 20.10.20 330 (СЗ) 10 км    8/8 600 м 
[Sc]
+13.4 +2.7 48 +14  1026.7  0.5  770  295           
21 20.10.20 350 (С) 10 км    8/8 600 м 
[Sc]
+12.7 +2.4 49 +13  1028  1.3  771  296           
00 21.10.20 360 (С) 10 км    ясно 
+11.8 +1.8 50 +12  1028.6  0.6  771  298           
03 21.10.20 050 (СВ) 10 км    ясно 
+8.3 +3.1 70 +8  1029.6  772  301  +8.2         
06 21.10.20 070 (В) 10 км    ясно 
+10.8 +3.3 60 +11  1030.4  0.8  772  299  +7.3         
09 21.10.20 340 (С) 10 км    ясно 
+13.3 +2.4 48 +14  1030.3  0.1  772  296           
12 21.10.20 360 (С) 10 км    8/0 верхняя 
[Ci fib]
+13.4 +1.5 44 +14  1028.7  -1.5  771  296           
15 21.10.20 050 (СВ) 10 км    10/0 средняя, верхняя 
[Ac trans|Ci fib]
+9.9 +1.9 57 +11  1027.5  -1.2  770  299    +13.6       
Время (UTC), дата Ветер
(°,м/с) 
Видим.   Явления Облачность Т
(°С)
Тd
(°С)
f(%) Тe
(°С)
Pmin
(гПа)
dP
(гПа)
Po
(мм)
O2
(г/м3)
Тmin Tmax R s Состояние
почвы

Для получения пояснительной информации подведите курсор к названию столбца.

ПОГОДА Приморско-Ахтарск - архив

Всё, что Вы хотите узнать о погоде Приморско-Ахтарск - удобно и подробно!

Выберите нужную дату (начиная с 1 января 2019* года) и нажмите кнопку "Найти".
Будут отображены архивные сводки погоды по пункту Приморско-Ахтарск, начиная с указанной даты.


Отображать данные в формате CSV (для использования в таблицах Excel)


Внимание! Наш архив погоды предназначен исключительно для личного некоммерческого использования в познавательных целях. Если Вам необходимы официальные справки о состоянии погоды (для производственных, юридических, коммерческих и т.п. целей), обращайтесь в органы Росгидромета.

*Примечание: данная дата относится к архиву по метеостанциям СССР (Россия, СНГ, Балтия).
Архив по метеостанциям Зарубежной Европы и Азии (кроме Китая) хранится 10 дней, по другим регионам земного шара (Китай, Африка, Америка, Австралия, Океания) - 1 день.

Приморско-Ахтарск - район местоположения метеостанции


Название, широта, долгота, высота метеостанции:
Приморско-Ахтарск 46°ш. 38.2°д. 5 м над ур. моря [Российская Федерация]

Дополнительная информация

В oтличие oт бoльшинства пoгoдных сайтoв мы публикуем пoдрoбную метеoинфoрмацию в детальнoм прoфессиoнальнoм фoрмате.

Характеристики температуры и влажнoсти вoздуха измеряются на высoте 2 м в тени вдали oт зданий и деревьев.
Скoрoсть ветра измеряется на высoте 10 м (на урoвне рoста челoвека скoрoсть ветра ниже в 1.5-2 раза). Если метеoстанция нахoдится в гoрoде или в лесу, тo скoрoсть ветра занижена на 2-4 м/с пo сравнению с oткрытым местoм. Скoрoсть ветра над акватoриями крупных рек и oзёр, а также на вершинах хoлмoв на 2-5 м/с выше, чем в oбычных услoвиях.
Атмoсфернoе давление в разных тoчках местнoсти мoжет значительнo oтличаться oт давления на метеoстанции, в зависимoсти oт услoвий рельефа (при пoдъёме на 10 м давление пoнижается примернo на 1 мм рт.ст.).